2014-11-03 00:03:19 r, 17.91m,0000000006Hz,0000075897c,0000000.165s, 020.3C,00002195
2014-11-03 00:13:19 r, 17.44m,0000000009Hz,0000049067c,0000000.106s, 020.3C,00002195
2014-11-03 00:23:19 r, 17.83m,0000000007Hz,0000071062c,0000000.154s, 020.3C,00002195
2014-11-03 00:33:19 r, 17.85m,0000000006Hz,0000072027c,0000000.156s, 019.9C,00002195
2014-11-03 00:43:19 r, 17.75m,0000000007Hz,0000065768c,0000000.143s, 019.9C,00002195
2014-11-03 00:53:19 r, 16.58m,0000000020Hz,0000022299c,0000000.048s, 019.9C,00002195
2014-11-03 01:03:19 r, 16.40m,0000000024Hz,0000018945c,0000000.041s, 019.9C,00002195
2014-11-03 01:13:19 r, 17.28m,0000000010Hz,0000042515c,0000000.092s, 019.9C,00002195
2014-11-03 01:23:19 r, 16.74m,0000000018Hz,0000025895c,0000000.056s, 020.3C,00002195
2014-11-03 01:33:19 r, 17.82m,0000000006Hz,0000069870c,0000000.152s, 020.3C,00002195
2014-11-03 01:43:19 r, 17.15m,0000000012Hz,0000037654c,0000000.082s, 019.9C,00002195
2014-11-03 01:53:19 r, 16.77m,0000000017Hz,0000026608c,0000000.058s, 019.9C,00002195
2014-11-03 02:03:19 r, 16.24m,0000000028Hz,0000016316c,0000000.035s, 020.3C,00002195
2014-11-03 02:13:19 r, 16.10m,0000000033Hz,0000014366c,0000000.031s, 020.3C,00002195
2014-11-03 02:23:19 r, 16.89m,0000000016Hz,0000029648c,0000000.064s, 020.6C,00002195
2014-11-03 02:33:19 r, 17.24m,0000000011Hz,0000041163c,0000000.089s, 020.6C,00002195
2014-11-03 02:43:19 r, 16.52m,0000000021Hz,0000021198c,0000000.046s, 020.6C,00002195
2014-11-03 02:53:19 r, 16.95m,0000000015Hz,0000031462c,0000000.068s, 020.3C,00002195
2014-11-03 03:03:19 r, 16.31m,0000000026Hz,0000017420c,0000000.038s, 020.3C,00002195
2014-11-03 03:13:19 r, 17.06m,0000000013Hz,0000034867c,0000000.076s, 020.3C,00002195
2014-11-03 03:23:19 r, 16.39m,0000000025Hz,0000018885c,0000000.041s, 020.6C,00002195
2014-11-03 03:33:19 r, 17.32m,0000000011Hz,0000044195c,0000000.096s, 020.9C,00002195
2014-11-03 03:43:19 r, 17.35m,0000000010Hz,0000045229c,0000000.098s, 020.9C,00002195
2014-11-03 03:53:19 r, 16.73m,0000000018Hz,0000025725c,0000000.056s, 020.9C,00002195
2014-11-03 04:03:19 r, 16.86m,0000000016Hz,0000028886c,0000000.063s, 020.6C,00002195
2014-11-03 04:13:19 r, 16.39m,0000000025Hz,0000018836c,0000000.041s, 020.6C,00002195
2014-11-03 04:23:19 r, 16.99m,0000000015Hz,0000032715c,0000000.071s, 020.6C,00002195
2014-11-03 04:33:19 r, 18.08m,0000000005Hz,0000089216c,0000000.194s, 020.3C,00002195
2014-11-03 04:43:19 r, 18.18m,0000000004Hz,0000096935c,0000000.210s, 019.9C,00002195
2014-11-03 04:53:19 r, 18.18m,0000000005Hz,0000097675c,0000000.212s, 019.6C,00002195
2014-11-03 05:03:19 r, 18.18m,0000000004Hz,0000097145c,0000000.211s, 019.6C,00002195
2014-11-03 05:13:19 r, 18.18m,0000000004Hz,0000097004c,0000000.211s, 019.3C,00002195
2014-11-03 05:23:19 r, 18.18m,0000000005Hz,0000096921c,0000000.210s, 019.3C,00002195
2014-11-03 05:33:19 r, 18.13m,0000000005Hz,0000093492c,0000000.203s, 019.0C,00002195
2014-11-03 05:43:19 r, 18.15m,0000000005Hz,0000095157c,0000000.207s, 019.0C,00002195
2014-11-03 05:53:19 r, 18.14m,0000000005Hz,0000093990c,0000000.204s, 018.6C,00002195
2014-11-03 06:03:19 r, 18.06m,0000000005Hz,0000087305c,0000000.189s, 018.6C,00002195
2014-11-03 06:13:19 r, 17.86m,0000000007Hz,0000072959c,0000000.158s, 018.6C,00002195
2014-11-03 06:23:19 r, 17.19m,0000000011Hz,0000039299c,0000000.085s, 018.3C,00002195
2014-11-03 06:33:19 r, 16.03m,0000000034Hz,0000013450c,0000000.029s, 018.3C,00002195
2014-11-03 06:43:19 r, 14.15m,0000000194Hz,0000000000c,0000000.000s, 018.3C,00002195
2014-11-03 06:53:19 r, 11.99m,0000001416Hz,0000000000c,0000000.000s, 018.0C,00002195
2014-11-03 07:03:19 r, 10.03m,0000008655Hz,0000000000c,0000000.000s, 018.0C,00002195
2014-11-03 07:13:19 r, 08.52m,0000034999Hz,0000000000c,0000000.000s, 018.0C,00002195
2014-11-03 07:23:19 r, 07.48m,0000090529Hz,0000000000c,0000000.000s, 018.0C,00002195
2014-11-03 07:33:19 r, 06.86m,0000160218Hz,0000000000c,0000000.000s, 018.0C,00002195
2014-11-03 07:43:19 r, 06.32m,0000265390Hz,0000000000c,0000000.000s, 018.3C,00002195
2014-11-03 07:53:19 r, 05.99m,0000359820Hz,0000000000c,0000000.000s, 018.0C,00002195
2014-11-03 08:03:19 r, 00.00m,0000471045Hz,0000000000c,0000000.000s, 018.3C,00002195
2014-11-03 08:13:19 r, 00.00m,0000562744Hz,0000000000c,0000000.000s, 018.3C,00002195
2014-11-03 08:23:19 r, 00.00m,0000562870Hz,0000000000c,0000000.000s, 018.0C,00002195
2014-11-03 08:33:19 r, 00.00m,0000562866Hz,0000000000c,0000000.000s, 018.6C,00002195
2014-11-03 08:43:19 r, 00.00m,0000563020Hz,0000000000c,0000000.000s, 019.6C,00002195
2014-11-03 08:53:19 r, 00.00m,0000563157Hz,0000000000c,0000000.000s, 021.2C,00002195
2014-11-03 09:03:19 r, 00.00m,0000563393Hz,0000000000c,0000000.000s, 022.5C,00002195
2014-11-03 09:13:19 r, 00.00m,0000563515Hz,0000000000c,0000000.000s, 023.8C,00002195
2014-11-03 09:23:19 r, 00.00m,0000563640Hz,0000000000c,0000000.000s, 024.4C,00002195
2014-11-03 09:33:19 r, 00.00m,0000563715Hz,0000000000c,0000000.000s, 025.4C,00002195
2014-11-03 09:43:19 r, 00.00m,0000563836Hz,0000000000c,0000000.000s, 026.4C,00002195
2014-11-03 09:53:19 r, 00.00m,0000563987Hz,0000000000c,0000000.000s, 027.7C,00002195
2014-11-03 10:03:19 r, 00.00m,0000564096Hz,0000000000c,0000000.000s, 028.3C,00002195
2014-11-03 10:13:19 r, 00.00m,0000563984Hz,0000000000c,0000000.000s, 029.0C,00002195
2014-11-03 10:23:19 r, 00.00m,0000563963Hz,0000000000c,0000000.000s, 028.6C,00002195
2014-11-03 10:33:19 r, 00.00m,0000563967Hz,0000000000c,0000000.000s, 028.0C,00002195
2014-11-03 10:43:19 r, 00.00m,0000564037Hz,0000000000c,0000000.000s, 028.6C,00002195
2014-11-03 10:53:19 r, 00.00m,0000564119Hz,0000000000c,0000000.000s, 028.6C,00002195
2014-11-03 11:03:19 r, 00.00m,0000563975Hz,0000000000c,0000000.000s, 028.3C,00002195
2014-11-03 11:13:19 r, 00.00m,0000564115Hz,0000000000c,0000000.000s, 028.6C,00002195
2014-11-03 11:23:19 r, 00.00m,0000564244Hz,0000000000c,0000000.000s, 029.9C,00002195
2014-11-03 11:33:19 r, 00.00m,0000564183Hz,0000000000c,0000000.000s, 029.6C,00002195
2014-11-03 11:43:19 r, 00.00m,0000564024Hz,0000000000c,0000000.000s, 028.6C,00002195
2014-11-03 11:53:19 r, 00.00m,0000563898Hz,0000000000c,0000000.000s, 027.7C,00002195
2014-11-03 12:03:19 r, 00.00m,0000563946Hz,0000000000c,0000000.000s, 027.7C,00002195
2014-11-03 12:13:19 r, 00.00m,0000564071Hz,0000000000c,0000000.000s, 028.3C,00002195
2014-11-03 12:23:19 r, 00.00m,0000564113Hz,0000000000c,0000000.000s, 028.6C,00002195
2014-11-03 12:33:19 r, 00.00m,0000563957Hz,0000000000c,0000000.000s, 028.3C,00002195
2014-11-03 12:43:19 r, 00.00m,0000564134Hz,0000000000c,0000000.000s, 029.0C,00002195
2014-11-03 12:53:19 r, 00.00m,0000564169Hz,0000000000c,0000000.000s, 029.9C,00002195
2014-11-03 13:03:19 r, 00.00m,0000564174Hz,0000000000c,0000000.000s, 029.6C,00002195
2014-11-03 13:13:19 r, 00.00m,0000564066Hz,0000000000c,0000000.000s, 029.3C,00002195
2014-11-03 13:23:19 r, 00.00m,0000564250Hz,0000000000c,0000000.000s, 030.2C,00002195
2014-11-03 13:33:19 r, 00.00m,0000564287Hz,0000000000c,0000000.000s, 029.9C,00002195
2014-11-03 13:43:19 r, 00.00m,0000564181Hz,0000000000c,0000000.000s, 029.3C,00002195
2014-11-03 13:53:19 r, 00.00m,0000564220Hz,0000000000c,0000000.000s, 029.9C,00002195
2014-11-03 14:03:19 r, 00.00m,0000564085Hz,0000000000c,0000000.000s, 029.0C,00002195
2014-11-03 14:13:19 r, 00.00m,0000563876Hz,0000000000c,0000000.000s, 027.7C,00002195
2014-11-03 14:23:19 r, 00.00m,0000563845Hz,0000000000c,0000000.000s, 027.0C,00002195
2014-11-03 14:33:19 r, 00.00m,0000563776Hz,0000000000c,0000000.000s, 026.7C,00002195
2014-11-03 14:43:19 r, 00.00m,0000563753Hz,0000000000c,0000000.000s, 026.1C,00002195
2014-11-03 14:53:19 r, 00.00m,0000563646Hz,0000000000c,0000000.000s, 025.4C,00002195
2014-11-03 15:03:19 r, 00.00m,0000563554Hz,0000000000c,0000000.000s, 025.1C,00002195
2014-11-03 15:13:19 r, 00.00m,0000563610Hz,0000000000c,0000000.000s, 025.4C,00002195
2014-11-03 15:23:19 r, 00.00m,0000563691Hz,0000000000c,0000000.000s, 025.7C,00002195
2014-11-03 15:33:19 r, 00.00m,0000563800Hz,0000000000c,0000000.000s, 025.7C,00002195
2014-11-03 15:43:19 r, 00.00m,0000563540Hz,0000000000c,0000000.000s, 025.1C,00002195
2014-11-03 15:53:19 r, 00.00m,0000563512Hz,0000000000c,0000000.000s, 024.8C,00002195
2014-11-03 16:03:19 r, 00.00m,0000563464Hz,0000000000c,0000000.000s, 024.1C,00002195
2014-11-03 16:13:19 r, 00.00m,0000523738Hz,0000000000c,0000000.000s, 023.8C,00002195
2014-11-03 16:23:19 r, 06.10m,0000324875Hz,0000000000c,0000000.000s, 023.8C,00002195
2014-11-03 16:33:19 r, 06.70m,0000185349Hz,0000000000c,0000000.000s, 023.5C,00002195
2014-11-03 16:43:19 r, 07.16m,0000122062Hz,0000000000c,0000000.000s, 023.5C,00002195
2014-11-03 16:53:19 r, 07.76m,0000070620Hz,0000000000c,0000000.000s, 023.2C,00002195
2014-11-03 17:03:19 r, 08.37m,0000040062Hz,0000000000c,0000000.000s, 023.2C,00002195
2014-11-03 17:13:19 r, 09.25m,0000017686Hz,0000000000c,0000000.000s, 023.2C,00002195
2014-11-03 17:23:19 r, 10.72m,0000004586Hz,0000000000c,0000000.000s, 022.8C,00002195
2014-11-03 17:33:19 r, 12.79m,0000000680Hz,0000000000c,0000000.000s, 022.8C,00002195
2014-11-03 17:43:19 r, 14.47m,0000000145Hz,0000000000c,0000000.000s, 022.8C,00002195
2014-11-03 17:53:19 r, 15.21m,0000000073Hz,0000006319c,0000000.014s, 022.8C,00002195
2014-11-03 18:03:19 r, 15.50m,0000000056Hz,0000008224c,0000000.018s, 022.8C,00002195
2014-11-03 18:13:19 r, 15.21m,0000000073Hz,0000006318c,0000000.014s, 022.5C,00002195
2014-11-03 18:23:19 r, 15.44m,0000000059Hz,0000007778c,0000000.017s, 022.5C,00002195
2014-11-03 18:33:19 r, 15.26m,0000000069Hz,0000006623c,0000000.014s, 022.5C,00002195
2014-11-03 18:43:19 r, 15.12m,0000000079Hz,0000005832c,0000000.013s, 022.5C,00002195
2014-11-03 18:53:19 r, 15.13m,0000000078Hz,0000005879c,0000000.013s, 022.2C,00002195
2014-11-03 19:03:19 r, 15.11m,0000000080Hz,0000005730c,0000000.012s, 022.2C,00002195
2014-11-03 19:13:19 r, 15.11m,0000000079Hz,0000005790c,0000000.013s, 022.2C,00002195
2014-11-03 19:23:19 r, 15.07m,0000000083Hz,0000005538c,0000000.012s, 022.2C,00002195
2014-11-03 19:33:19 r, 15.12m,0000000079Hz,0000005816c,0000000.013s, 021.9C,00002195
2014-11-03 19:43:19 r, 15.04m,0000000085Hz,0000005393c,0000000.012s, 021.9C,00002195
2014-11-03 19:53:19 r, 15.04m,0000000086Hz,0000005386c,0000000.012s, 021.9C,00002195
2014-11-03 20:03:19 r, 15.00m,0000000089Hz,0000005209c,0000000.011s, 021.9C,00002195
2014-11-03 20:13:19 r, 15.07m,0000000083Hz,0000005565c,0000000.012s, 021.9C,00002195
2014-11-03 20:23:19 r, 15.01m,0000000088Hz,0000005261c,0000000.011s, 021.9C,00002195
2014-11-03 20:33:19 r, 15.00m,0000000089Hz,0000005204c,0000000.011s, 021.5C,00002195
2014-11-03 20:43:19 r, 15.04m,0000000085Hz,0000005428c,0000000.012s, 021.5C,00002195
2014-11-03 20:53:19 r, 15.02m,0000000085Hz,0000005314c,0000000.012s, 021.5C,00002195
2014-11-03 21:03:19 r, 15.14m,0000000079Hz,0000005891c,0000000.013s, 021.5C,00002195
2014-11-03 21:13:19 r, 15.15m,0000000077Hz,0000006009c,0000000.013s, 021.5C,00002195
2014-11-03 21:23:19 r, 15.17m,0000000075Hz,0000006079c,0000000.013s, 021.5C,00002195
2014-11-03 21:33:19 r, 15.17m,0000000077Hz,0000006062c,0000000.013s, 021.5C,00002195
2014-11-03 21:43:19 r, 15.18m,0000000075Hz,0000006120c,0000000.013s, 021.5C,00002195
2014-11-03 21:53:19 r, 15.24m,0000000072Hz,0000006484c,0000000.014s, 021.2C,00002195
2014-11-03 22:03:19 r, 15.29m,0000000067Hz,0000006827c,0000000.015s, 021.2C,00002195
2014-11-03 22:13:19 r, 15.37m,0000000063Hz,0000007303c,0000000.016s, 021.2C,00002195
2014-11-03 22:23:19 r, 15.44m,0000000059Hz,0000007814c,0000000.017s, 021.2C,00002195
2014-11-03 22:33:19 r, 15.48m,0000000057Hz,0000008105c,0000000.018s, 021.2C,00002195
2014-11-03 22:43:19 r, 15.67m,0000000048Hz,0000009680c,0000000.021s, 020.9C,00002195
2014-11-03 22:53:19 r, 15.49m,0000000057Hz,0000008191c,0000000.018s, 020.9C,00002195
2014-11-03 23:03:19 r, 15.40m,0000000061Hz,0000007551c,0000000.016s, 020.9C,00002195
2014-11-03 23:13:19 r, 15.44m,0000000058Hz,0000007816c,0000000.017s, 020.9C,00002195
2014-11-03 23:23:19 r, 15.46m,0000000058Hz,0000007997c,0000000.017s, 020.6C,00002195
2014-11-03 23:33:19 r, 15.37m,0000000063Hz,0000007323c,0000000.016s, 020.6C,00002195
2014-11-03 23:43:19 r, 15.40m,0000000061Hz,0000007500c,0000000.016s, 020.6C,00002195
2014-11-03 23:53:19 r, 15.62m,0000000050Hz,0000009248c,0000000.020s, 020.6C,00002195
